Terminal Aerodrome Forecast
Issued by NWS Cleveland, OH

Home | Current Version | Previous Version | Text Only | Print | Product List | Glossary On
Versions: 1 2 3 4 5 6 7 8 9 10 11 12 13 14 15 16 17 18 19 20 21 22 23 24 25 26 27 28 29 30 31 32 33 34 35 36 37 38 39 40
000
FTUS41 KCLE 062332
TAFCAK
TAF
KCAK 062332Z 0700/0724 36008KT P6SM FEW150
     FM070800 36005KT P6SM SKC
     FM071400 02007KT P6SM FEW250
     FM072100 36009KT P6SM FEW250=

USA.gov is the U.S. government's official web portal to all federal, state and local government web resources and services.